Horseheads, NY

12:35 PM EST on February 23, 2017 (GMT -0500)
Elmira-Corning Regional

Weather History for KELM - February, 2014

Change the Weather History Date:

Thursday, February 13, 2014

  Actual Average Record
Temperature  
Mean Temperature 20 °F -  
Max Temperature 26 °F 32 °F 57 °F (1949)
Min Temperature 14 °F 13 °F -11 °F (1958)
Degree Days  
Heating Degree Days 45    
Moisture  
Dew Point 15 °F    
Average Humidity 76    
Maximum Humidity 88    
Minimum Humidity 57    
Precipitation  
Precipitation 0.12 in - - ()
Sea Level Pressure  
Sea Level Pressure 29.75 in    
Wind  
Wind Speed 2 mph (NNE)    
Max Wind Speed 9 mph    
Max Gust Speed -    
Visibility 4 miles    
Events Fog , Snow    
Averages and records for this station are not official NWS values.
T = Trace of Precipitation, MM = Missing Value Source: NWS Daily Summary

Daily Weather History Graph

Daily Weather History Graph

Search for Another Location

Airport or City:

Trip Planner

Search our weather history database for the weather conditions in past years. The results will help you decide how hot, cold, wet, or windy it might be!

Date:

Astronomy

Feb. 13, 2014 Rise Set
Actual Time 7:06 AM EST 5:37 PM EST
Civil Twilight 6:37 AM EST 6:06 PM EST
Nautical Twilight 6:04 AM EST 6:39 PM EST
Astronomical Twilight 5:32 AM EST 7:11 PM EST
Moon 4:44 PM EST (2/13) 5:58 AM EST (2/13)
Length of Visible Light 11h 28m
Length of Day
10h 31m
Waxing Gibbous, 98% of the Moon is Illuminated
Feb 13
Waxing Gibbous
Feb 14
Full
Feb 22
Last Quarter
Mar 1
New
Mar 8
First Quarter

Hourly Weather History & Observations

Time (EST) Temp. Windchill Dew Point Humidity Pressure Visibility Wind Dir Wind Speed Gust Speed Precip Events Conditions
12:53 AM 14.0 °F - 3.0 °F 62% 30.24 in 10.0 mi Calm Calm - N/A   Scattered Clouds
1:53 AM 16.0 °F 10.4 °F 3.0 °F 57% 30.21 in 10.0 mi North 3.5 mph - N/A   Clear
2:53 AM 14.0 °F - 3.9 °F 64% 30.18 in 10.0 mi Calm Calm - N/A   Clear
3:53 AM 15.1 °F - 3.9 °F 61% 30.16 in 10.0 mi Calm Calm - N/A   Clear
4:53 AM 15.1 °F - 6.1 °F 68% 30.13 in 10.0 mi Calm Calm - N/A   Partly Cloudy
5:53 AM 15.1 °F - 6.1 °F 68% 30.10 in 10.0 mi Calm Calm - N/A   Partly Cloudy
6:06 AM 15.8 °F - 6.8 °F 68% 30.04 in 10.0 mi Calm Calm - N/A   Mostly Cloudy
6:44 AM 15.8 °F - 6.8 °F 68% 30.02 in 10.0 mi Calm Calm - N/A   Scattered Clouds
6:53 AM 17.1 °F - 7.0 °F 65% 30.06 in 10.0 mi Calm Calm - N/A   Partly Cloudy
7:27 AM 17.6 °F - 8.6 °F 68% 30.01 in 10.0 mi Calm Calm - N/A   Overcast
7:53 AM 17.1 °F - 8.1 °F 68% 30.05 in 10.0 mi Calm Calm - N/A   Overcast
8:53 AM 17.1 °F - 9.0 °F 71% 30.01 in 10.0 mi Calm Calm - N/A   Overcast
9:53 AM 18.0 °F - 10.0 °F 71% 29.98 in 4.0 mi Calm Calm - 0.00 in Snow Light Snow
10:11 AM 17.6 °F - 10.4 °F 73% 29.93 in 1.8 mi Calm Calm - 0.00 in Snow Light Snow
10:53 AM 19.0 °F - 14.0 °F 81% 29.95 in 0.8 mi Calm Calm - 0.01 in Snow Light Snow
11:10 AM 19.4 °F - 14.0 °F 80% 29.88 in 0.5 mi Calm Calm - 0.01 in Snow Snow
11:44 AM 19.4 °F - 15.8 °F 86% 29.85 in 0.8 mi Calm Calm - 0.02 in Snow Light Snow
11:53 AM 19.0 °F 13.9 °F 16.0 °F 88% 29.90 in 0.5 mi WSW 3.5 mph - 0.02 in Fog , Snow Snow
12:36 PM 19.4 °F - 15.8 °F 86% 29.81 in 0.5 mi Calm Calm - 0.02 in Fog , Snow Snow
12:53 PM 21.0 °F - 17.1 °F 85% 29.85 in 0.5 mi Calm Calm - 0.03 in Fog , Snow Snow
1:13 PM 21.2 °F - 17.6 °F 86% 29.78 in 0.5 mi Calm Calm - 0.01 in Fog , Snow Snow
1:53 PM 23.0 °F - 18.0 °F 81% 29.78 in 0.8 mi Calm Calm - 0.02 in Snow Light Snow
2:53 PM 24.1 °F - 19.9 °F 84% 29.73 in 1.0 mi Calm Calm - 0.01 in Snow Light Snow
3:06 PM 24.8 °F - 21.2 °F 86% 29.66 in 0.8 mi Calm Calm - 0.00 in Snow Light Snow
3:32 PM 24.8 °F 16.1 °F 21.2 °F 86% 29.63 in 3.0 mi ENE 8.1 mph - 0.01 in Snow Light Snow
3:50 PM 24.8 °F 16.9 °F 19.4 °F 80% 29.62 in 2.5 mi ENE 6.9 mph - 0.01 in Snow Light Snow
3:53 PM 25.0 °F 17.1 °F 19.0 °F 78% 29.67 in 1.0 mi NE 6.9 mph - 0.01 in Snow Light Snow
4:02 PM 24.8 °F 15.3 °F 19.4 °F 80% 29.62 in 1.0 mi NE 9.2 mph - 0.00 in Snow Light Snow
4:53 PM 24.1 °F 14.4 °F 18.0 °F 77% 29.64 in 1.0 mi NE 9.2 mph - 0.00 in Snow Light Snow
5:20 PM 23.0 °F 13.1 °F 17.6 °F 80% 29.58 in 1.0 mi NE 9.2 mph - 0.00 in Snow Light Snow
5:34 PM 23.0 °F 13.9 °F 17.6 °F 80% 29.57 in 1.0 mi ENE 8.1 mph - 0.00 in Snow Light Snow
5:53 PM 24.1 °F 16.0 °F 18.0 °F 77% 29.61 in 1.0 mi NE 6.9 mph - 0.00 in Snow Light Snow
6:18 PM 24.8 °F 17.9 °F 19.4 °F 80% 29.55 in 2.0 mi NE 5.8 mph - 0.00 in Snow Light Snow
6:53 PM 25.0 °F 17.1 °F 19.0 °F 78% 29.58 in 3.0 mi Variable 6.9 mph - 0.01 in Snow Light Snow
7:02 PM 24.8 °F 16.9 °F 19.4 °F 80% 29.53 in 2.0 mi NE 6.9 mph - 0.00 in Snow Light Snow
7:29 PM 24.8 °F - 19.4 °F 80% 29.51 in 1.5 mi Calm Calm - 0.00 in Snow Light Snow
7:53 PM 25.0 °F - 19.9 °F 81% 29.53 in 2.5 mi Calm Calm - 0.01 in Snow Light Snow
8:12 PM 26.6 °F - 19.4 °F 74% 29.47 in 3.0 mi Calm Calm - 0.00 in Snow Light Snow
8:53 PM 26.1 °F 20.5 °F 19.9 °F 78% 29.49 in 5.0 mi Variable 4.6 mph - 0.00 in Snow Light Snow
9:08 PM 26.6 °F - 19.4 °F 74% 29.44 in 5.0 mi Calm Calm - 0.00 in Snow Light Snow
9:31 PM 24.8 °F 17.9 °F 21.2 °F 86% 29.43 in 2.0 mi SW 5.8 mph - 0.00 in Snow Light Snow
9:53 PM 25.0 °F 19.3 °F 19.0 °F 78% 29.47 in 2.5 mi Variable 4.6 mph - 0.00 in Snow Light Snow
10:29 PM 24.8 °F 16.9 °F 17.6 °F 74% 29.41 in 3.0 mi WNW 6.9 mph - 0.00 in Snow Light Snow
10:36 PM 24.8 °F 20.5 °F 17.6 °F 74% 29.40 in 4.0 mi Variable 3.5 mph - 0.00 in Snow Light Snow
10:53 PM 24.1 °F 18.2 °F 18.0 °F 77% 29.44 in 3.0 mi Variable 4.6 mph - 0.00 in Snow Light Snow
11:32 PM 24.8 °F 20.5 °F 19.4 °F 80% 29.38 in 5.0 mi West 3.5 mph - 0.00 in Snow Light Snow
11:53 PM 25.0 °F 18.1 °F 19.0 °F 78% 29.42 in 3.0 mi WNW 5.8 mph - 0.00 in Snow Light Snow